#timestamp,LO_Frequency,Hit,StdDev 
1679400015.2,286046998.1,N
1679400035.9,286046995.2,N
1679400055.7,286046990.9,N
1679400075.6,286046985.7,Y
1679400095.4,286046988.2,P
1679400115.2,286046988.7,N
1679400135.1,286046989.4,N
1679400136.0,286046989.4,N
1679400155.8,286046989.1,N
1679400175.7,286046986.9,Y
1679400195.5,286047000.7,P
1679400215.3,286047000.8,N
1679400235.2,286046997.4,N
1679400255.0,286046999.9,N
1679400255.9,286046999.9,N
1679400275.8,286046996.5,N
1679400295.6,286046997.1,N
1679400315.4,286046996.0,N
1679400335.3,286046996.1,N
1679400355.1,286046993.8,N
1679400375.8,286046992.1,N
1679400395.7,286046994.8,N
1679400415.5,286046992.4,N
1679400435.3,286046994.7,N
1679400455.2,286046994.3,N
1679400475.0,286046990.3,Y
1679400475.9,286046990.3,P
1679400495.8,286046995.3,N
1679400515.6,286046993.8,N
1679400535.4,286046992.4,Y
1679400555.3,286046996.1,P
1679400575.1,286046997.4,N
1679400595.9,286046995.7,N
1679400615.7,286046996.4,N
1679400635.5,286046990.6,Y
1679400655.4,286046997.9,P
1679400675.2,286046995.1,P
1679400695.0,286046999.3,N
1679400695.9,286046999.3,N
1679400715.8,286046999.3,N
1679400735.6,286046997.8,N
1679400755.5,286046997.2,N
1679400775.3,286046998.6,N
1679400795.1,286046998.8,N
1679400815.9,286046995.1,Y
1679400835.7,286046998.9,P
1679400855.5,286046997.9,P
1679400875.4,286046998.9,N
1679400895.2,286046998.7,N
1679400915.1,286046997.9,Y
1679400916.0,286046997.9,P
1679400935.8,286046997.9,P
1679400955.6,286046994.0,P
1679400975.5,286046993.7,Y
1679400995.3,286046992.0,P
1679401015.2,286046988.9,P
1679401035.9,286046990.1,N
1679401055.7,286046990.5,Y
1679401075.6,286047000.3,P
1679401095.4,286047004.4,N
1679401115.2,286047001.0,N
1679401135.1,286047001.8,N
1679401136.0,286047001.8,N
1679401155.8,286046999.9,N
1679401175.7,286046998.2,N
1679401195.5,286046997.4,N
1679401215.3,286046997.2,N
1679401235.2,286046997.3,N
1679401255.0,286046997.6,N
1679401255.9,286046997.6,N
1679401275.7,286046995.2,N
1679401295.6,286046996.2,N
1679401315.4,286046996.3,N
1679401365.3,286046992.3,E
1679401375.2,286046993.3,N
1679401395.0,286046998.2,P
1679401396.0,286046998.2,N
1679401415.8,286047000.3,N
1679401435.6,286047000.5,N
1679401455.5,286047000.2,N
1679401475.3,286047004.1,N
1679401495.1,286047002.2,N
1679401515.9,286047001.9,N
1679401535.7,286046998.5,N
1679401555.5,286046999.2,N
1679401575.4,286046993.3,N
1679401595.2,286046992.0,N
1679401615.1,286046996.3,N
1679401616.0,286046996.3,N
1679401635.8,286046993.4,N
1679401655.6,286046996.1,N
1679401675.5,286046996.9,N
1679401695.3,286046995.6,N
1679401715.2,286046998.0,N
1679401735.9,286046997.9,N
1679401755.7,286046995.9,N
1679401775.6,286046996.5,N
1679401795.4,286046997.5,N
1679401815.2,286046995.8,N
1679401835.1,286046996.2,N
1679401836.0,286046996.2,N
1679401855.8,286046991.8,N
1679401875.7,286046994.6,N
1679401895.5,286046994.0,N
1679401915.3,286046991.9,N
1679401935.2,286046993.2,N
1679401955.9,286046993.3,N
1679401975.7,286046997.3,N
1679401995.6,286046995.8,N
1679402015.4,286046993.6,N
1679402035.3,286046993.0,N
1679402055.1,286046994.7,N
1679402056.0,286046994.7,N
1679402075.8,286046994.8,N
1679402095.7,286046990.3,Y
1679402115.5,286046998.8,P
1679402135.3,286046999.9,N
1679402155.2,286046999.8,N
1679402175.0,286046998.8,N
1679402175.9,286046998.8,N
1679402195.8,286047001.2,N
1679402215.6,286046996.6,N
1679402235.4,286046998.8,N
1679402255.3,286046996.4,N
1679402275.1,286046993.5,Y
1679402295.9,286046993.6,P
1679402315.7,286046994.4,N
1679402335.5,286046992.4,P
1679402355.4,286046994.3,N
1679402375.2,286046994.2,N
1679402395.0,286046991.7,Y
1679402395.9,286046991.7,P
1679402415.8,286047002.8,N
1679402435.6,286046996.6,N
1679402455.5,286046997.1,N
1679402475.3,286047000.0,N
1679402495.1,286047001.1,N
1679402515.9,286046995.3,N
1679402535.7,286046993.4,N
1679402555.5,286046994.2,N
1679402575.4,286046996.0,N
1679402595.2,286046993.5,N
1679402615.1,286046995.0,N
1679402616.0,286046995.0,N
1679402635.8,286046995.6,N
1679402655.6,286046996.8,N
1679402675.5,286046998.0,N
1679402695.3,286046996.0,N
1679402715.1,286046992.1,N
1679402735.9,286046992.0,N
1679402755.7,286046992.1,N
1679402775.6,286046994.2,N
1679402795.4,286046992.0,N
1679402815.2,286046993.9,N
1679402835.1,286046994.5,N
1679402836.0,286046994.5,N
1679402855.8,286046992.2,N
1679402875.6,286046994.4,N
1679402895.5,286046986.3,Y
1679402915.3,286047001.2,P
1679402935.2,286047001.0,N
1679402955.9,286047000.9,N
1679402975.7,286047000.7,N
1679402995.6,286046997.0,N
1679403015.4,286047001.2,N
1679403035.2,286046997.8,N
1679403055.1,286046996.1,N
1679403056.0,286046996.1,N
1679403075.8,286046995.4,N
1679403095.7,286046995.7,N
1679403115.5,286046996.1,N
1679403135.3,286046996.4,N
1679403155.2,286046993.3,N
1679403175.0,286046995.9,N
1679403175.9,286046995.9,N
1679403195.7,286046990.5,Y
1679403215.6,286046996.4,P
1679403235.4,286046995.7,P
1679403255.3,286046993.9,P
1679403275.1,286046991.8,Y
1679403295.8,286046997.2,P
1679403315.7,286046997.3,P
1679403335.5,286046995.1,P
1679403355.4,286046996.2,Y
1679403375.2,286046996.9,P
1679403395.0,286046995.9,P
1679403395.9,286046995.9,P
1679403415.8,286046994.5,Y
1679403435.6,286046997.4,P
1679403455.4,286046999.5,N
1679403475.3,286046994.9,P
1679403495.1,286046997.4,N
1679403515.9,286046995.2,Y
1679403535.7,286047000.8,P
1679403555.5,286047002.8,N
1679403575.4,286047003.7,N
1679403595.2,286047004.8,N
